Wind_Speed
55 59 57 50 49 50 50 50 51 52 52 51 52 53 55 54 52 51 50 50 49 48 47 47 46 46 46 45 45 45 45 46 45 45 44 43 42 41 40 39 37 36 36 35 34 34 35 35 35 34 32 31 30 29 29 29 29 28 27 27 26 26 26 25 25 25 25 25 26 27 27 27 27 27 27 27 27 27 27 28 28 29 29 30 31
55 55 58 55 51 51 52 51 48 48 50 52 52 54 54 55 55 53 52 51 50 48 48 48 47 46 45 45 45 45 45 45 44 44 43 43 42 40 39 37 36 35 34 34 33 34 35 35 34 32 30 29 28 27 27 27 27 26 26 26 26 26 26 25 25 25 25 25 25 26 26 26 26 26 26 26 25 25 26 26 27 27 28 28 29
57 54 55 59 58 55 55 54 50 47 47 49 51 53 54 53 51 50 50 51 51 50 50 49 48 47 46 45 45 45 45 44 43 42 42 42 41 40 38 37 36 35 34 34 34 35 35 35 33 31 29 28 27 26 26 26 26 26 26 26 26 26 26 27 27 26 26 25 25 25 26 26 25 25 25 24 24 24 24 25 25 26 27 27 28
60 58 54 56 61 61 59 56 55 52 49 48 48 49 52 53 50 47 44 45 47 48 49 49 48 48 47 46 45 44 44 44 42 41 41 41 40 39 38 37 37 36 35 34 34 35 35 34 32 30 28 27 26 25 25 25 25 25 26 26 27 27 27 28 27 26 26 25 25 25 25 25 25 24 24 23 23 23 23 24 25 25 26 27 27
57 59 59 54 56 62 63 61 58 57 55 53 50 48 48 51 53 50 45 41 41 42 44 45 46 47 47 46 45 44 43 43 41 40 39 39 38 37 36 36 35 34 34 33 34 34 34 33 31 29 27 26 25 24 25 25 24 25 26 27 28 28 28 28 26 25 25 25 25 25 24 24 24 23 23 23 22 22 23 24 24 25 26 27 27
54 53 58 57 55 58 63 63 60 59 58 57 56 53 50 49 51 53 51 47 44 43 42 44 45 47 47 46 45 43 42 41 40 38 38 37 35 35 34 33 33 32 33 33 34 34 34 33 31 29 27 26 25 23 24 24 24 24 26 27 28 29 28 27 26 25 24 24 24 24 24 24 23 23 22 22 22 22 23 23 24 25 26 27 28
58 53 53 56 56 56 59 62 62 60 59 59 60 59 56 52 49 50 52 52 51 48 47 48 49 48 48 46 45 43 41 39 36 35 35 35 34 33 32 31 31 31 32 33 34 34 33 32 30 28 27 25 24 23 23 23 24 24 25 27 28 28 27 26 26 25 24 23 24 24 24 23 23 22 22 22 22 22 23 24 25 26 26 27 28
58 58 54 54 55 55 58 61 62 62 60 60 61 63 61 57 53 50 50 51 50 48 48 50 52 52 49 46 45 43 41 37 32 32 33 34 34 33 31 31 31 31 32 33 33 33 32 31 29 27 26 24 23 22 22 23 23 24 24 26 27 27 25 25 25 24 23 23 23 24 24 23 23 22 22 22 22 23 23 24 25 26 27 27 28
55 57 56 55 55 55 58 60 62 63 62 61 62 64 64 62 58 53 50 50 48 46 44 46 51 53 50 47 44 42 41 36 32 32 32 31 32 31 30 30 31 32 33 33 33 33 31 29 27 26 25 24 23 22 21 22 23 23 23 24 26 25 23 24 24 23 23 24 24 24 24 24 23 23 22 22 22 23 24 24 25 26 27 28 28
54 55 55 55 54 54 56 59 61 62 61 61 61 62 65 65 62 58 55 52 49 47 44 43 48 52 51 48 44 42 40 36 33 32 32 31 31 31 31 32 33 34 34 33 33 32 30 27 25 24 24 23 23 22 21 22 22 22 22 23 25 24 22 22 22 22 23 24 24 24 24 24 24 23 23 23 23 23 24 25 26 26 27 28 29
54 55 56 56 54 54 55 56 59 61 61 61 60 60 63 65 64 62 59 57 53 51 48 46 50 53 52 49 44 41 39 36 34 33 35 36 36 35 32 32 33 33 32 32 31 30 27 24 23 23 24 23 23 22 21 22 22 21 21 23 23 22 21 21 20 21 23 24 24 24 24 24 24 24 23 23 24 24 24 25 26 26 27 28 29
52 53 57 59 58 57 56 56 57 60 61 60 60 60 62 64 65 64 62 61 59 56 53 52 53 54 53 49 44 41 39 36 34 35 39 41 39 33 28 27 28 29 29 29 28 27 25 23 22 23 24 24 23 22 21 22 21 20 21 22 22 21 20 20 19 20 22 23 23 23 23 24 24 24 24 24 24 24 25 25 26 27 27 28 29
49 48 51 56 59 59 59 58 58 59 60 60 60 59 61 63 64 66 66 64 63 61 57 55 55 56 54 49 44 41 39 35 35 39 43 42 35 27 25 26 27 28 27 26 26 25 24 22 22 23 24 24 23 22 21 21 21 20 21 22 22 21 20 19 19 19 21 23 23 24 24 24 24 24 24 24 24 24 25 26 26 27 27 28 29
48 46 47 51 55 59 60 59 58 58 59 60 61 60 60 61 62 64 66 66 65 63 61 58 56 56 55 49 44 41 37 35 37 41 40 35 29 26 27 29 30 30 28 27 25 24 24 23 23 24 24 23 22 21 21 21 21 20 21 22 22 22 20 19 19 19 21 23 24 25 26 25 24 24 24 24 24 24 24 25 26 26 27 27 28
45 46 48 51 54 58 59 59 58 57 58 59 60 60 60 60 60 61 63 65 65 65 63 61 58 56 55 50 44 41 37 36 37 37 33 28 27 29 31 32 31 30 29 28 25 24 24 24 23 23 23 23 22 21 21 21 21 21 22 23 23 22 20 19 20 20 21 23 24 26 27 28 26 25 24 24 23 24 24 25 25 25 26 26 27
37 43 50 54 55 57 59 60 59 57 55 56 58 59 60 61 60 60 60 62 63 64 63 62 59 56 55 51 46 41 39 38 35 32 29 27 28 32 35 34 30 29 28 26 25 23 23 23 22 22 22 22 21 21 21 21 21 22 22 23 24 23 21 20 21 21 22 23 25 26 28 30 29 27 24 24 24 24 24 25 25 25 25 25 26
30 37 47 54 56 56 57 59 59 57 53 52 55 57 59 60 61 61 60 60 60 62 62 61 59 56 55 51 47 42 41 40 36 32 31 32 34 37 38 34 29 28 26 25 24 23 23 23 22 21 22 21 21 21 21 21 22 22 22 23 24 23 21 21 21 22 22 23 25 26 28 30 31 30 26 25 24 25 25 25 25 25 25 25 26
34 39 44 51 55 56 56 56 56 56 53 51 52 55 57 57 59 60 60 60 59 60 60 59 57 55 53 49 46 42 42 44 42 40 40 41 40 39 37 32 28 27 25 24 23 23 23 22 21 21 21 21 21 22 22 22 22 22 22 23 24 23 22 21 22 22 22 23 25 26 28 31 32 32 29 26 25 25 26 26 26 25 25 26 26
34 39 41 47 51 53 55 55 55 54 52 52 51 53 56 57 57 59 60 59 59 58 58 57 55 52 49 46 43 41 44 47 47 47 45 42 39 37 35 32 29 27 26 24 24 24 23 23 22 21 21 21 22 22 22 22 22 22 22 23 24 23 22 22 22 23 23 24 26 27 29 31 33 34 31 28 26 26 26 26 26 26 26 26 27
36 37 37 42 46 49 54 56 56 54 52 52 53 52 54 57 58 58 58 59 58 56 55 54 52 49 45 43 41 40 44 46 46 44 41 38 37 37 35 32 30 28 27 25 25 25 24 23 21 20 20 20 21 21 21 22 22 22 23 24 24 24 24 23 23 23 23 25 26 27 29 32 34 35 33 30 27 27 27 27 27 27 27 27 27
39 38 38 41 42 45 49 51 53 52 51 50 52 53 52 54 56 58 57 57 58 56 53 52 49 47 44 42 42 41 43 44 43 40 38 37 37 37 36 33 31 29 28 26 25 25 23 22 20 19 19 19 19 20 20 21 21 22 23 24 25 25 24 23 23 24 25 26 27 28 30 33 36 36 35 31 28 27 27 27 27 27 28 28 28
38 39 40 42 42 45 46 47 48 47 49 48 49 51 50 51 53 56 57 56 56 55 52 50 47 45 43 41 42 43 43 43 41 38 37 36 36 36 35 32 31 30 29 27 23 23 22 21 20 19 19 19 19 19 20 21 22 23 24 24 25 26 25 24 23 25 26 27 27 28 31 35 37 38 36 32 29 28 28 28 28 28 28 28 29
38 38 38 40 41 45 46 45 45 44 45 44 44 47 48 49 50 52 54 55 54 53 50 49 47 44 43 40 41 44 44 42 39 37 35 35 34 33 32 31 30 30 31 29 24 21 20 20 20 19 19 19 18 19 20 21 22 23 24 25 25 26 26 24 24 25 26 27 27 28 32 36 38 39 37 33 30 29 29 29 28 28 28 28 28
43 41 40 39 37 38 42 42 43 45 43 40 40 43 46 47 48 49 51 53 53 51 49 47 46 44 42 39 40 42 42 40 37 35 34 34 33 32 32 33 33 32 32 33 30 25 20 19 19 19 19 19 19 19 20 21 23 25 26 26 26 27 26 24 24 25 26 27 28 29 33 37 39 40 38 34 31 30 30 30 29 29 28 28 28
42 42 41 35 31 33 36 38 41 44 43 39 39 41 44 46 47 47 48 50 51 50 48 47 47 45 42 38 39 41 40 38 37 36 35 34 34 35 36 36 37 35 34 35 34 30 25 21 19 19 20 20 20 20 21 22 24 26 26 26 26 27 26 23 23 24 26 28 29 31 34 38 41 40 38 35 32 31 31 30 30 29 29 29 29
40 39 37 32 32 31 27 29 34 40 42 40 41 41 43 45 46 45 46 48 48 49 48 47 47 47 44 40 41 42 41 39 37 38 36 34 34 36 36 36 37 36 35 36 35 32 29 25 22 22 22 22 22 22 22 23 24 26 27 27 27 27 25 23 23 24 26 29 30 32 36 39 41 39 37 35 33 33 33 31 30 29 29 29 29
42 37 34 31 28 22 17 26 35 39 43 41 41 42 43 44 45 44 44 46 47 47 47 46 47 48 47 44 42 43 43 41 38 38 37 35 35 36 36 36 36 35 33 34 34 32 30 27 24 25 25 24 24 23 23 23 25 26 26 27 27 26 24 23 23 24 27 29 30 34 38 41 41 39 37 35 34 34 34 32 31 30 30 30 31
44 37 33 25 16 12 15 27 40 43 46 48 45 43 43 43 44 44 43 44 45 46 46 45 46 48 49 47 43 42 43 42 39 38 36 35 36 36 36 37 35 33 30 31 31 31 30 28 27 28 28 27 26 24 24 24 24 25 25 25 25 25 24 24 23 24 28 29 31 36 39 42 41 38 36 35 35 35 34 33 32 31 31 32 32
44 38 32 23 15 13 16 27 38 42 44 48 48 43 42 42 42 43 42 43 44 45 45 44 46 48 49 47 44 42 41 41 40 38 36 36 37 37 37 38 34 29 29 29 29 29 30 30 30 30 30 29 28 25 24 24 23 23 23 23 24 25 25 25 24 26 29 29 32 38 41 42 41 37 35 35 35 35 35 34 33 32 32 33 33
40 38 38 34 28 24 24 32 39 41 40 40 42 40 40 41 41 42 41 42 43 44 45 46 47 47 47 47 44 42 41 41 41 38 36 37 39 39 39 39 36 30 28 28 28 30 34 34 34 33 32 30 28 24 22 22 22 21 21 23 24 25 26 26 26 29 29 29 34 39 42 42 39 36 35 35 35 35 35 34 34 33 33 34 34
39 41 44 43 37 36 38 42 45 39 35 36 40 38 38 39 39 41 41 40 42 43 46 48 49 47 46 46 43 41 41 42 42 40 38 38 40 40 40 40 40 36 32 32 33 36 35 33 33 32 31 28 24 20 20 21 20 20 21 23 24 25 26 26 28 30 29 30 36 41 43 42 38 36 35 35 35 35 35 35 34 34 34 35 35
41 41 41 40 38 40 43 46 49 43 38 37 42 41 37 37 37 38 39 39 41 43 46 50 51 49 47 46 44 41 41 41 41 39 36 38 40 41 41 40 41 41 40 40 40 38 32 28 29 29 27 23 18 17 18 19 19 19 21 23 24 26 26 26 29 30 30 34 38 42 44 41 38 36 35 35 35 35 35 35 35 35 36 36 35
41 38 37 38 38 40 40 44 48 48 47 42 41 43 37 36 36 36 37 39 41 42 46 51 52 51 50 48 45 43 40 39 38 37 36 37 39 40 40 39 41 42 43 44 42 35 28 25 25 25 21 16 14 16 17 18 19 19 22 24 25 26 26 26 30 31 32 36 39 43 44 40 38 36 35 35 34 33 34 34 35 36 36 36 36
44 40 37 39 41 42 42 45 49 53 54 47 41 41 36 34 34 33 36 39 40 42 46 50 52 52 52 50 47 44 42 40 38 37 39 39 39 41 42 42 42 42 43 43 39 32 26 22 20 18 16 13 13 15 16 18 19 20 22 24 25 26 25 28 32 32 34 38 40 43 44 40 38 37 36 35 34 33 33 34 35 36 37 37 36
51 46 41 41 44 45 47 51 52 56 61 55 45 42 36 30 29 30 34 39 41 43 46 51 52 52 52 50 49 46 44 43 41 38 40 41 39 40 44 44 44 43 40 36 33 29 23 19 16 14 13 12 13 14 16 18 19 20 22 24 26 25 26 31 33 32 34 39 41 44 43 41 39 38 37 36 34 33 34 34 36 37 38 38 37
53 51 47 45 51 51 54 60 58 55 61 61 49 43 42 35 29 30 33 38 41 44 47 51 52 52 52 50 49 48 46 45 44 42 42 42 40 39 42 44 44 43 36 30 28 26 22 18 17 16 16 17 16 16 17 19 20 21 22 25 27 25 27 32 32 31 35 39 43 44 42 40 39 38 37 36 35 34 34 35 36 38 39 39 39
54 55 53 49 57 59 57 61 62 55 57 63 54 45 47 45 39 35 34 37 42 45 47 50 53 52 52 51 50 49 48 47 46 44 42 43 44 44 46 47 45 42 35 29 26 23 21 20 21 20 21 22 22 21 20 21 21 22 24 26 28 26 27 31 31 31 36 40 43 43 41 39 38 38 37 36 35 34 34 35 37 39 41 41 41
63 61 58 53 59 63 58 57 60 56 56 61 57 50 49 48 46 42 38 38 42 46 48 51 54 54 53 53 52 51 50 48 46 44 42 43 46 47 48 46 42 39 36 30 26 23 21 21 23 23 23 25 26 25 24 24 23 23 25 27 28 27 27 30 30 32 37 41 42 41 39 38 37 37 37 36 35 35 35 36 38 40 42 43 43
74 69 64 58 58 61 61 60 58 55 57 61 58 54 51 48 48 45 40 39 41 44 47 50 54 56 55 54 54 51 49 48 47 45 44 45 46 45 42 40 40 38 36 32 25 24 23 22 24 25 26 27 27 28 28 26 24 24 26 27 27 26 26 28 30 34 38 40 40 38 37 36 36 38 38 36 35 36 36 36 38 40 42 43 43
79 77 69 64 61 61 63 65 62 57 59 61 59 57 53 49 48 47 42 39 42 43 42 46 52 55 56 56 55 54 52 49 47 47 46 47 47 46 42 41 43 40 36 33 27 23 24 24 25 26 27 28 29 29 28 25 24 25 26 26 27 26 26 27 31 35 37 38 37 35 34 35 36 37 38 36 35 36 36 37 37 39 41 41 41
81 81 76 70 67 63 63 65 62 59 60 61 61 59 53 50 49 48 46 42 44 46 42 41 47 50 54 56 55 55 55 53 51 49 49 50 49 48 47 45 45 41 36 34 31 25 24 24 24 24 25 26 27 26 25 24 25 26 26 27 28 28 29 31 33 34 35 34 33 32 33 35 36 36 36 36 36 35 36 37 37 38 40 40 39
82 82 81 77 71 66 64 66 63 62 63 62 61 60 55 53 52 50 49 47 48 49 46 44 46 46 49 53 54 54 54 54 55 54 53 53 50 49 49 45 42 41 38 35 33 29 27 26 25 24 23 23 23 23 24 24 25 27 28 29 30 31 32 32 31 30 31 31 30 30 32 34 36 36 35 35 35 35 36 38 38 38 38 37 37
83 83 83 82 78 69 65 68 68 67 66 63 61 62 59 56 55 54 52 49 51 52 50 49 48 46 46 48 51 55 55 54 55 55 54 55 53 51 51 47 42 42 40 36 34 31 28 28 27 26 24 22 22 22 23 25 26 28 30 31 32 33 31 28 26 27 28 28 28 29 32 34 35 34 33 33 34 36 37 37 37 37 37 35 36
84 84 84 85 84 77 69 70 72 70 68 64 61 62 63 59 57 58 57 51 51 55 54 51 48 47 49 48 47 51 55 56 55 54 53 53 52 51 51 48 45 43 41 38 34 31 30 29 28 27 24 22 22 22 23 25 26 28 30 30 30 28 25 23 24 26 26 26 27 29 32 34 34 32 31 31 34 36 36 36 35 37 37 36 36
85 86 86 86 88 84 75 72 74 74 71 67 62 63 65 63 61 61 61 55 52 56 56 53 51 49 48 49 47 45 50 57 58 55 54 53 51 50 49 48 45 42 42 40 36 34 31 29 28 26 23 21 20 21 22 24 25 26 27 27 25 22 19 20 22 24 24 25 27 30 32 33 32 30 29 31 34 35 35 33 33 36 38 37 36
86 88 88 88 90 88 81 75 76 76 74 71 66 64 65 65 65 64 64 61 57 57 59 57 56 54 49 47 47 43 43 52 61 60 57 55 53 51 50 49 48 44 43 42 39 35 31 28 27 24 20 20 19 19 20 22 23 23 23 22 21 18 17 19 21 22 24 25 27 30 32 31 30 29 29 31 33 33 32 32 32 35 37 36 37
85 89 90 90 91 91 86 79 77 78 76 73 69 66 65 66 68 67 66 65 61 60 63 61 60 58 53 49 46 44 41 45 57 64 62 58 56 54 53 51 50 48 45 43 39 35 30 28 26 22 19 18 17 18 19 19 20 20 20 20 19 17 16 18 20 22 23 25 28 30 30 29 28 27 28 30 31 31 30 30 33 35 35 34 37
84 89 92 92 92 93 91 84 80 80 78 75 71 68 67 67 69 69 68 68 64 63 66 64 61 60 56 52 47 43 42 41 47 57 62 61 57 57 57 55 53 51 46 42 38 33 30 28 24 21 18 16 15 16 18 18 18 19 19 19 19 17 16 18 20 21 23 25 28 29 28 26 26 26 27 28 29 28 29 30 33 34 33 34 37
82 88 92 94 93 94 94 88 83 82 79 76 72 69 69 69 70 70 68 70 69 65 67 67 63 61 58 54 49 43 42 42 43 50 57 60 59 58 58 57 55 53 47 41 36 33 31 28 23 19 16 14 14 15 16 17 18 19 19 20 19 17 16 18 20 22 23 25 28 28 25 24 24 24 26 27 27 27 28 30 31 31 31 35 37
81 86 91 94 95 95 95 92 87 83 81 79 73 70 70 70 72 72 67 70 74 68 68 71 66 62 60 56 51 45 40 39 42 48 52 56 58 58 59 58 57 54 47 40 37 34 31 27 23 20 16 14 13 14 16 19 20 20 20 21 19 17 16 18 21 22 24 26 27 25 22 22 22 23 25 26 26 27 28 29 29 29 32 35 37
79 84 89 93 96 96 96 94 90 86 84 82 76 73 73 72 73 75 70 69 75 72 70 73 70 65 62 60 54 45 38 36 39 46 51 52 54 57 58 58 57 54 47 40 37 34 31 27 24 21 18 16 14 15 18 21 22 22 22 22 20 17 16 19 21 22 24 25 26 23 20 20 21 23 24 24 25 27 28 28 28 29 31 34 36
Wind_Direction
246 244 243 244 244 245 247 248 248 248 248 249 251 253 253 253 254 254 255 256 258 259 259 259 259 260 261 262 263 264 264 265 266 267 268 270 272 274 276 278 279 281 282 283 285 288 291 294 296 297 297 298 299 300 303 307 309 308 307 306 306 305 304 303 303 303 303 302 300 298 296 293 291 290 289 289 289 290 291 292 292 293 293 293 292
243 243 240 240 242 242 243 245 245 246 247 249 250 252 254 254 255 255 255 257 258 259 260 260 261 261 262 262 263 264 265 265 266 267 268 269 271 273 275 276 277 278 280 283 286 289 293 295 296 295 296 297 297 298 302 306 307 307 305 305 306 305 304 304 304 304 304 303 302 300 297 295 292 291 290 290 290 292 293 294 295 295 295 295 294
240 243 240 238 241 242 242 244 243 241 243 246 249 250 253 254 255 256 257 257 258 258 259 260 262 262 263 263 263 264 265 266 267 268 268 269 270 272 273 274 275 277 280 283 287 290 293 295 295 293 293 294 294 296 300 304 306 305 304 305 305 304 304 305 305 305 305 304 303 301 298 296 293 292 291 291 292 293 294 295 296 296 296 295 295
237 243 244 239 239 242 242 244 244 241 240 242 245 246 247 249 250 252 254 256 256 256 256 257 259 260 262 262 264 265 266 267 268 269 269 270 271 271 272 273 274 276 280 284 287 289 292 293 292 290 291 291 291 294 298 302 305 305 304 304 304 304 305 307 307 307 306 305 304 303 300 297 294 293 292 292 293 295 297 297 298 297 297 296 296
236 242 244 242 240 240 241 243 243 242 241 240 242 242 242 243 245 247 249 251 252 252 253 253 255 258 260 262 264 266 268 269 269 270 270 271 271 270 270 271 273 276 280 283 286 288 290 291 289 288 289 288 288 291 297 302 304 305 305 304 303 304 307 309 310 310 309 308 307 305 302 299 297 295 295 295 296 298 299 300 299 299 298 298 297
236 241 243 244 244 242 241 242 242 241 241 240 241 242 242 241 241 243 245 248 250 253 254 254 255 257 260 262 265 267 269 269 270 272 272 271 270 269 268 270 273 277 280 283 285 287 289 289 287 285 286 285 285 289 296 301 303 304 304 304 303 304 307 310 312 313 312 312 310 308 305 303 301 300 300 300 301 302 302 302 301 301 300 299 298
235 239 242 244 247 246 243 242 242 242 242 241 240 241 243 242 239 240 243 247 250 254 257 258 257 258 260 262 265 267 270 270 272 272 271 271 269 268 268 270 274 277 280 282 284 286 287 288 285 283 283 281 282 287 294 299 302 304 303 302 302 303 306 310 314 315 315 314 313 310 308 306 305 304 305 305 306 306 306 305 304 303 301 300 300
233 237 241 244 248 249 246 244 243 243 244 243 241 241 243 243 241 239 241 245 250 254 257 259 259 259 260 262 265 267 269 269 269 267 267 268 268 267 267 270 274 277 279 281 283 285 287 286 284 281 279 278 279 284 292 297 300 302 302 300 299 301 304 310 315 316 318 317 315 313 311 309 308 308 308 309 309 309 309 308 307 305 304 303 302
233 236 240 244 247 249 249 247 245 245 245 244 243 243 243 244 242 240 240 242 246 250 254 258 259 259 260 263 265 267 267 266 262 259 260 262 264 264 266 270 274 277 278 281 283 284 285 284 282 278 275 274 276 282 289 293 297 300 299 297 297 299 303 310 315 318 320 319 317 315 313 312 311 311 312 312 312 311 311 310 309 308 306 305 305
234 236 240 244 246 249 251 250 248 248 248 245 244 243 243 244 243 240 240 241 242 245 249 253 257 259 261 262 264 266 266 264 260 256 257 261 261 263 267 271 274 276 278 280 282 282 282 281 277 274 272 272 274 279 286 291 295 298 297 294 294 296 301 310 316 320 323 321 318 316 315 313 313 313 313 314 314 314 313 312 311 309 308 307 306
236 237 240 242 244 248 252 252 251 251 251 248 245 244 242 244 245 242 240 240 241 243 245 248 253 258 260 262 263 264 264 263 261 260 260 259 260 263 267 271 273 275 278 279 279 279 277 275 273 270 269 270 272 276 283 289 293 296 295 292 292 294 300 310 315 322 327 326 322 318 316 315 314 314 314 315 315 315 315 313 311 310 309 308 308
236 239 241 243 246 249 251 253 254 253 252 249 248 245 242 243 245 244 242 241 242 242 244 246 252 256 258 260 261 261 263 261 260 262 261 257 258 262 267 270 274 278 279 279 277 274 270 269 268 267 267 268 269 275 281 286 290 294 294 291 291 293 297 307 313 321 331 333 330 326 321 317 315 314 313 313 314 315 315 315 313 312 311 310 309
236 241 243 246 249 250 252 254 256 255 252 250 249 248 245 243 243 244 244 243 243 243 244 246 250 254 256 257 258 260 262 260 257 259 258 254 256 261 265 271 277 279 279 278 275 270 265 265 266 265 265 266 268 274 280 285 288 291 293 291 291 292 294 303 308 316 330 338 339 337 332 324 318 314 313 313 313 315 316 316 315 314 312 311 310
239 245 248 250 251 251 252 254 255 255 254 251 250 250 247 245 244 244 244 244 244 244 245 246 248 251 255 255 256 259 258 258 257 254 251 248 253 259 264 274 279 278 277 277 274 269 264 263 264 264 262 263 267 273 279 284 287 289 292 292 292 292 292 299 304 309 322 333 339 343 342 336 326 318 314 314 314 315 316 316 315 314 313 312 311
243 248 251 253 254 254 253 253 255 255 255 252 250 250 248 247 246 246 244 244 244 245 246 246 247 249 253 254 254 257 253 253 252 244 241 243 252 259 266 276 279 276 275 274 273 269 264 262 261 259 258 260 266 272 278 283 285 288 291 292 292 292 291 296 302 306 314 324 332 340 344 343 337 327 319 316 315 315 315 314 314 313 313 313 312
247 251 252 253 255 254 253 255 256 255 255 253 251 250 250 249 248 248 247 245 245 245 246 246 247 247 250 252 253 254 247 246 244 235 236 244 254 262 270 277 277 275 273 270 269 267 261 258 256 254 256 259 265 270 277 282 284 286 290 292 292 291 291 294 301 305 311 320 327 335 341 344 342 336 325 318 316 315 315 314 313 312 312 312 313
236 244 249 251 252 253 254 255 256 255 256 255 252 251 251 250 249 249 249 248 247 246 246 246 246 246 248 250 252 250 240 240 239 236 242 251 259 264 269 273 273 273 269 264 263 261 257 253 251 252 255 260 265 271 276 281 283 285 289 291 292 291 290 294 301 306 312 319 325 331 338 341 342 340 332 323 318 316 316 315 314 312 312 312 312
231 232 240 248 250 252 255 256 256 255 256 258 255 253 252 251 250 249 249 249 248 247 246 246 246 246 247 248 249 245 235 236 238 240 247 254 260 263 266 269 270 268 262 259 258 257 254 250 252 253 256 262 266 272 276 281 282 285 289 291 291 290 289 294 301 307 312 319 323 329 335 339 341 341 337 328 322 318 317 316 315 313 312 312 312
235 234 239 247 251 253 256 257 258 258 257 258 258 256 253 251 251 250 250 250 249 249 247 246 246 245 245 245 244 241 233 234 238 242 249 254 258 261 264 266 267 263 258 257 254 254 253 251 253 254 258 264 268 273 277 281 283 286 289 291 290 288 289 293 301 307 312 318 322 328 334 338 340 340 338 332 325 321 319 317 316 315 314 313 312
237 240 243 246 252 256 260 261 260 260 260 259 258 258 256 252 251 251 250 250 249 249 248 246 245 243 242 240 240 240 234 234 240 244 250 253 258 262 264 265 263 258 257 257 253 252 252 251 253 255 261 266 271 276 278 282 283 286 289 290 289 289 290 293 302 308 312 317 321 326 333 337 339 339 338 333 328 323 320 318 317 316 316 315 314
234 240 247 247 251 257 261 263 262 262 262 262 259 258 258 255 252 251 251 250 249 249 249 246 243 241 239 237 237 238 235 235 241 246 250 254 258 262 265 264 258 254 256 258 250 247 249 249 253 258 264 269 274 278 280 283 285 287 290 290 289 290 292 294 303 310 312 316 320 325 331 335 337 339 337 332 328 324 321 319 318 318 318 318 317
229 233 243 247 249 255 260 264 266 265 264 264 262 258 257 256 254 251 251 250 249 248 247 245 242 239 237 237 235 235 236 237 241 246 250 255 258 261 263 261 256 252 253 255 248 242 245 249 255 261 265 270 275 281 284 285 287 289 291 291 290 291 293 296 304 310 312 315 319 324 331 334 336 338 336 332 328 325 323 321 320 320 320 319 319
229 234 238 245 250 255 259 263 267 267 266 266 263 260 257 256 255 253 251 249 248 248 246 242 241 236 235 237 235 235 237 239 242 246 250 254 257 259 260 260 260 255 250 251 250 245 247 251 257 261 265 270 276 283 287 289 291 292 291 291 291 293 294 299 307 311 312 315 318 324 331 333 334 336 335 332 328 326 324 322 321 321 321 321 320
229 235 237 242 250 257 260 265 269 269 269 269 266 263 259 256 255 254 251 249 248 247 245 241 239 234 231 234 233 235 239 241 243 244 248 252 256 258 259 262 263 260 253 249 250 252 254 256 259 262 265 270 275 281 287 292 295 293 291 291 292 295 296 301 310 312 313 316 319 326 331 332 332 334 334 331 328 326 325 324 323 323 323 322 322
223 230 236 240 248 258 265 269 269 270 271 271 271 266 261 257 254 254 252 249 247 245 243 239 237 231 227 229 230 234 238 241 242 239 240 249 255 258 260 262 261 261 260 251 249 253 257 261 263 265 266 268 273 277 284 291 295 294 291 291 293 295 297 304 312 315 316 318 322 328 330 330 331 332 332 331 328 326 325 325 325 324 324 324 324
221 228 236 239 244 256 270 273 270 272 273 272 272 268 262 257 253 253 251 249 246 243 240 237 235 230 225 225 227 233 238 240 239 236 236 243 252 256 258 260 260 262 261 252 248 252 257 261 266 268 269 270 273 277 283 291 295 294 291 291 292 293 297 306 313 318 320 321 324 328 329 329 330 330 330 329 327 326 326 325 325 325 325 326 326
222 226 232 233 238 247 256 271 276 276 275 274 272 268 262 257 253 251 250 248 244 241 238 235 234 230 226 225 227 232 237 240 237 235 236 242 250 255 256 258 263 264 258 249 246 251 255 259 265 269 270 273 275 280 286 293 296 294 291 290 291 293 300 308 314 320 322 323 325 326 328 330 331 330 329 328 326 326 326 326 326 325 326 327 327
218 220 224 222 220 215 218 259 277 279 279 278 274 268 263 257 253 250 248 246 243 239 236 232 231 230 227 225 228 231 236 239 236 234 235 243 251 254 255 258 265 262 251 247 249 252 256 259 264 266 269 272 275 280 287 294 295 293 292 292 294 299 305 310 315 322 322 323 324 326 328 331 330 329 327 326 325 325 325 325 325 325 326 328 328
213 214 215 207 200 201 217 248 268 279 282 281 275 269 263 258 253 250 247 245 241 237 234 229 228 230 229 226 229 230 233 234 231 232 236 245 251 251 254 257 260 256 246 247 249 254 260 262 263 265 266 270 273 278 286 293 294 293 294 296 300 304 307 311 317 322 321 321 324 327 330 330 328 327 326 324 324 325 324 324 324 324 326 328 328
212 211 210 211 210 207 219 237 250 265 275 277 274 267 262 259 255 251 248 244 240 236 231 226 225 230 230 229 230 230 231 230 229 232 238 245 250 251 253 255 256 252 245 246 251 265 273 268 264 264 264 267 271 276 285 292 293 294 296 300 304 307 310 313 317 320 318 319 325 329 330 329 326 325 324 323 323 323 323 323 323 324 326 327 327
210 208 210 217 216 207 209 221 226 236 251 264 269 263 259 258 255 252 248 244 240 234 230 224 224 228 231 231 230 230 230 231 232 236 239 242 248 249 250 253 255 253 251 253 263 275 279 270 263 262 263 265 267 275 286 290 291 292 297 303 306 309 312 314 317 317 315 319 324 328 330 327 324 323 322 321 322 322 322 322 322 324 326 327 327
207 207 214 223 219 209 208 216 218 214 219 237 255 258 256 255 253 251 247 244 240 234 229 225 225 227 229 232 231 230 231 234 237 239 240 242 245 247 250 252 253 255 257 260 268 275 274 265 261 261 260 259 265 278 286 288 289 292 299 305 308 310 311 313 316 314 314 319 322 326 329 325 321 321 320 320 321 321 321 322 323 325 326 327 326
206 206 218 231 224 214 212 220 224 217 212 216 235 249 254 255 251 251 248 244 241 236 230 228 228 228 230 232 232 232 232 233 237 241 242 241 242 245 249 250 252 255 258 263 268 270 267 264 263 259 252 252 267 281 283 285 287 291 300 306 308 309 309 313 314 311 313 319 322 326 327 323 319 319 318 319 320 319 320 321 323 325 326 327 326
205 200 207 228 228 221 218 225 229 224 219 212 216 231 245 255 252 250 247 243 241 235 230 230 231 232 232 234 234 234 233 230 231 238 242 242 241 242 244 248 250 254 260 264 265 264 264 266 262 251 244 252 271 281 282 285 286 290 299 304 306 306 309 313 310 307 313 320 322 326 326 321 318 317 317 318 318 318 319 320 322 325 326 326 325
202 197 198 217 223 223 221 224 228 226 223 216 209 211 222 243 256 255 248 243 241 235 229 228 231 234 234 235 235 234 232 228 228 232 237 242 244 243 243 245 250 256 262 264 260 259 261 260 255 246 246 259 271 279 286 288 287 291 296 301 302 303 308 310 305 304 314 320 323 326 324 319 316 316 316 317 318 317 318 319 322 325 326 326 324
199 195 196 209 214 217 220 220 223 225 221 219 212 203 205 218 238 250 252 247 241 236 231 227 228 233 234 233 234 235 233 229 230 232 234 239 244 247 247 249 254 258 261 262 258 255 256 253 254 257 260 266 269 275 285 288 288 290 293 297 299 301 305 304 300 306 315 320 322 324 322 317 315 315 316 317 317 317 318 319 322 324 326 326 325
200 199 198 208 212 212 217 220 222 222 217 216 214 206 202 204 213 226 239 247 244 239 234 228 226 230 233 232 232 233 233 231 233 235 237 240 243 247 249 252 256 258 261 264 258 252 254 254 255 259 263 268 271 274 284 288 286 288 290 294 298 302 302 298 299 307 314 318 321 322 318 314 314 314 315 315 316 316 317 319 322 324 326 326 325
204 206 202 208 214 211 214 218 220 219 216 214 212 210 206 201 202 209 218 234 244 244 238 230 226 228 231 233 235 236 235 232 233 235 237 241 244 245 247 250 253 258 265 266 258 252 254 252 250 251 255 262 269 276 285 287 284 286 290 295 301 306 302 296 298 307 312 316 319 318 315 313 313 314 314 314 315 316 316 318 321 324 326 326 326
206 210 208 209 212 211 213 216 216 216 216 214 210 211 212 204 199 201 207 219 233 242 241 234 229 230 230 233 237 239 238 234 232 233 235 237 240 241 243 249 255 261 266 266 259 253 251 249 249 250 253 262 272 280 285 283 280 282 287 293 300 303 300 294 298 306 310 314 316 314 311 312 313 313 313 314 315 315 316 318 322 325 326 327 328
206 210 211 211 211 210 213 214 214 215 215 212 208 209 211 208 201 198 201 210 221 231 238 238 236 234 233 235 238 238 238 236 233 232 233 235 238 240 244 252 260 263 263 263 262 255 251 252 255 259 264 270 277 280 280 276 275 279 283 288 293 296 295 295 302 307 310 312 313 310 309 313 314 313 313 315 316 317 318 323 325 326 327 329 331
207 210 211 213 211 210 212 212 211 211 210 208 206 206 207 207 204 199 198 203 213 219 225 234 239 238 237 237 239 239 238 237 235 233 233 236 239 243 246 252 258 261 259 260 262 259 257 259 263 268 272 275 278 278 276 273 274 277 280 285 288 291 293 298 304 307 309 311 310 307 310 315 315 314 314 315 317 318 323 326 327 328 330 333 337
207 209 210 211 211 211 211 209 206 204 204 205 204 204 205 204 203 202 200 201 206 209 212 220 229 236 239 240 240 240 240 238 236 235 235 236 240 243 247 250 254 257 258 260 262 264 265 268 272 276 278 279 280 278 278 278 279 281 283 285 287 290 293 298 304 307 309 309 306 306 312 316 315 314 314 316 318 320 325 326 327 329 332 336 341
207 208 209 209 210 211 208 206 203 201 204 206 205 206 206 204 204 204 203 204 205 205 207 212 217 225 233 239 244 243 242 241 239 238 238 239 241 245 248 248 250 254 259 261 262 265 269 272 276 279 281 282 282 282 282 284 286 286 287 288 289 290 293 299 305 306 307 305 304 309 315 317 315 314 315 317 319 322 325 326 328 330 334 338 341
206 207 209 209 210 210 207 204 201 201 205 207 207 207 207 206 206 206 205 206 206 206 208 209 213 218 221 227 238 245 244 243 241 240 240 242 244 245 247 249 250 253 258 261 262 265 268 271 275 278 279 280 281 282 283 286 288 289 289 289 289 290 295 302 305 305 304 302 304 311 317 317 314 314 317 319 321 324 325 327 330 332 336 339 340
207 206 208 209 209 209 207 204 202 203 207 210 208 208 207 207 208 208 206 206 207 207 208 209 210 214 217 218 224 235 243 243 241 241 242 244 246 246 246 250 253 255 259 261 261 263 266 271 275 276 274 274 277 279 283 287 288 288 289 289 288 289 296 304 303 301 299 300 305 313 317 315 314 315 318 320 322 324 326 327 330 333 337 340 340
208 206 207 209 209 209 207 205 204 205 209 211 209 207 208 208 209 210 207 207 208 207 208 209 211 213 214 215 216 221 234 241 240 241 243 245 246 247 247 251 256 258 259 261 260 261 265 270 273 270 268 269 273 278 282 284 285 287 289 287 288 291 296 302 300 296 295 300 308 315 317 314 315 317 320 322 322 323 326 329 331 335 338 339 340
211 207 207 209 209 208 208 206 206 207 209 210 207 206 209 209 210 211 208 208 210 209 209 210 213 215 213 214 216 216 223 237 241 240 242 244 245 247 248 251 256 258 259 259 258 260 266 270 269 263 261 264 271 278 281 281 284 287 289 290 290 292 296 299 296 291 293 301 310 316 316 314 316 320 321 322 322 325 328 332 333 335 337 339 340
213 210 208 208 209 209 208 207 207 209 209 208 206 206 208 209 211 213 211 211 212 211 211 211 214 217 214 212 214 217 221 231 241 242 241 243 245 247 250 251 255 258 258 257 256 259 266 269 264 257 255 261 271 276 276 279 282 284 288 292 290 289 295 296 291 289 291 301 311 315 315 314 317 320 320 321 324 328 330 332 334 335 337 340 341
215 213 210 209 210 209 208 207 207 208 207 207 207 207 208 209 211 213 214 214 214 214 213 212 214 216 215 213 213 218 224 231 243 246 241 242 244 246 249 251 254 257 256 255 257 259 264 265 259 253 253 260 270 272 272 276 279 281 287 290 287 286 291 290 286 287 292 302 312 315 314 314 317 318 317 321 327 331 330 331 334 336 339 343 345
217 215 213 210 210 209 208 206 205 207 206 207 209 208 208 209 211 212 215 217 217 216 215 213 214 215 216 216 215 218 225 233 245 250 244 241 243 245 248 250 253 255 255 255 258 260 262 261 255 252 253 257 262 263 266 272 275 280 288 290 284 282 285 284 282 286 293 304 313 315 312 313 315 315 316 323 331 333 331 332 335 339 342 344 347
220 217 215 212 211 210 209 206 204 205 206 208 209 209 208 209 210 211 213 217 219 218 217 214 214 216 217 217 217 215 219 228 241 248 245 241 242 245 247 249 251 253 255 256 258 259 259 257 254 252 251 249 248 252 261 268 273 280 291 291 283 277 279 278 278 284 294 305 312 313 310 312 313 314 317 326 335 335 332 332 336 341 344 345 346
Height
10847 10848 10851 10853 10854 10856 10857 10860 10861 10863 10865 10866 10866 10866 10866 10868 10870 10871 10872 10872 10873 10874 10875 10876 10877 10878 10879 10880 10881 10881 10881 10881 10882 10883 10884 10884 10885 10885 10885 10885 10886 10886 10886 10886 10887 10887 10887 10886 10885 10885 10884 10883 10882 10881 10880 10879 10878 10876 10875 10874 10873 10872 10871 10869 10868 10866 10865 10863 10862 10861 10859 10858 10857 10855 10854 10853 10852 10851 10849 10848 10847 10846 10845 10844 10842
10836 10839 10845 10847 10849 10851 10853 10856 10858 10859 10861 10862 10863 10863 10863 10864 10866 10868 10869 10869 10870 10871 10872 10873 10874 10876 10877 10878 10878 10878 10878 10879 10880 10881 10882 10882 10883 10883 10883 10883 10884 10884 10884 10885 10885 10885 10885 10884 10884 10883 10882 10882 10881 10880 10878 10877 10876 10875 10874 10873 10872 10870 10869 10868 10866 10865 10863 10862 10860 10859 10857 10856 10855 10853 10852 10851 10850 10849 10847 10846 10845 10844 10843 10842 10841
10829 10830 10835 10840 10843 10846 10848 10851 10853 10856 10858 10859 10860 10860 10861 10862 10863 10865 10866 10866 10867 10868 10869 10870 10872 10873 10874 10875 10876 10876 10876 10876 10878 10879 10879 10879 10880 10881 10881 10881 10882 10882 10882 10883 10883 10883 10883 10882 10882 10881 10881 10880 10879 10878 10877 10876 10875 10873 10872 10871 10870 10869 10867 10866 10865 10863 10862 10860 10859 10857 10856 10854 10853 10851 10850 10849 10848 10847 10845 10844 10843 10842 10841 10840 10839
10824 10825 10828 10833 10836 10840 10843 10846 10849 10852 10854 10856 10857 10857 10858 10859 10861 10862 10863 10863 10864 10864 10866 10867 10869 10870 10872 10873 10873 10874 10874 10874 10875 10876 10877 10877 10878 10878 10879 10879 10879 10880 10880 10880 10881 10881 10881 10881 10880 10879 10879 10878 10877 10876 10875 10874 10873 10872 10870 10870 10868 10867 10866 10864 10863 10861 10860 10858 10857 10855 10854 10852 10851 10850 10848 10847 10846 10845 10844 10842 10841 10840 10839 10838 10837
10822 10823 10825 10828 10831 10834 10837 10841 10844 10847 10849 10852 10853 10854 10854 10855 10857 10859 10861 10861 10861 10861 10862 10864 10865 10867 10869 10871 10871 10872 10872 10872 10873 10874 10874 10874 10875 10876 10876 10877 10877 10877 10878 10878 10879 10879 10879 10878 10878 10877 10877 10876 10875 10874 10873 10872 10871 10870 10869 10868 10866 10865 10863 10862 10861 10859 10858 10856 10855 10853 10852 10851 10849 10848 10846 10845 10844 10843 10841 10840 10839 10838 10837 10835 10834
10820 10822 10823 10825 10828 10830 10832 10836 10839 10842 10844 10847 10849 10851 10851 10852 10853 10855 10857 10858 10857 10858 10859 10860 10863 10865 10867 10869 10869 10869 10870 10870 10871 10872 10872 10872 10873 10874 10874 10875 10875 10875 10876 10876 10877 10877 10877 10876 10876 10875 10875 10874 10873 10872 10871 10870 10869 10868 10867 10866 10864 10863 10861 10860 10858 10857 10855 10854 10852 10851 10850 10849 10847 10846 10844 10843 10842 10840 10839 10838 10837 10836 10834 10833 10832
10817 10819 10821 10822 10824 10826 10828 10831 10834 10837 10839 10842 10844 10846 10848 10849 10850 10852 10854 10855 10855 10855 10856 10857 10860 10863 10865 10866 10867 10868 10868 10869 10869 10870 10870 10870 10871 10872 10872 10873 10873 10874 10874 10874 10875 10874 10874 10874 10874 10873 10873 10872 10871 10870 10869 10868 10867 10866 10865 10864 10862 10861 10860 10858 10857 10855 10853 10852 10850 10849 10848 10846 10845 10844 10842 10841 10839 10838 10837 10836 10834 10833 10832 10831 10830
10815 10817 10819 10820 10821 10822 10825 10827 10829 10832 10835 10838 10840 10842 10844 10845 10847 10849 10851 10852 10852 10853 10853 10854 10857 10860 10863 10864 10865 10866 10866 10867 10868 10868 10867 10868 10868 10870 10870 10871 10871 10872 10872 10872 10872 10872 10872 10872 10872 10871 10871 10870 10869 10868 10868 10867 10866 10865 10863 10862 10860 10859 10858 10857 10855 10853 10852 10850 10849 10847 10846 10845 10843 10842 10840 10839 10838 10836 10835 10834 10832 10831 10830 10829 10828
10812 10814 10816 10817 10818 10819 10821 10822 10825 10828 10830 10833 10836 10838 10840 10842 10843 10845 10847 10849 10851 10851 10852 10852 10853 10857 10860 10862 10863 10864 10864 10865 10866 10866 10866 10866 10866 10868 10869 10869 10869 10870 10870 10870 10870 10870 10870 10870 10869 10869 10869 10868 10867 10866 10866 10865 10864 10863 10862 10860 10859 10858 10857 10855 10854 10852 10850 10849 10847 10846 10844 10843 10841 10840 10838 10837 10836 10834 10833 10832 10830 10829 10828 10827 10826
10808 10810 10812 10813 10815 10816 10817 10819 10821 10824 10826 10829 10832 10834 10836 10838 10840 10842 10844 10846 10848 10850 10851 10850 10850 10854 10858 10860 10861 10861 10862 10863 10864 10865 10864 10864 10864 10866 10867 10867 10868 10868 10868 10868 10868 10868 10868 10868 10867 10867 10867 10866 10865 10865 10864 10863 10862 10861 10860 10859 10857 10856 10856 10854 10852 10851 10849 10848 10846 10844 10843 10841 10840 10838 10836 10835 10834 10832 10831 10829 10828 10827 10826 10824 10823
10804 10805 10807 10809 10811 10812 10814 10815 10818 10820 10822 10825 10827 10830 10832 10834 10836 10839 10841 10843 10845 10847 10849 10849 10848 10852 10856 10858 10859 10859 10860 10861 10862 10863 10863 10862 10863 10864 10865 10865 10866 10866 10866 10866 10866 10866 10866 10866 10866 10865 10865 10864 10864 10863 10862 10862 10861 10860 10858 10857 10856 10855 10854 10853 10851 10850 10848 10846 10845 10843 10841 10840 10838 10836 10835 10833 10832 10830 10829 10827 10826 10825 10824 10822 10821
10799 10801 10803 10805 10807 10809 10810 10812 10814 10816 10819 10821 10823 10827 10829 10831 10833 10835 10837 10839 10842 10843 10845 10847 10847 10850 10854 10856 10857 10857 10858 10859 10860 10860 10860 10860 10861 10862 10863 10864 10864 10864 10864 10864 10864 10864 10864 10864 10864 10864 10863 10862 10862 10861 10861 10860 10859 10858 10857 10856 10855 10854 10853 10852 10850 10849 10847 10846 10843 10842 10840 10839 10837 10835 10833 10832 10830 10829 10827 10826 10824 10823 10821 10820 10819
10794 10797 10800 10802 10804 10806 10807 10809 10810 10812 10815 10817 10820 10823 10825 10828 10830 10832 10834 10836 10838 10840 10842 10844 10846 10848 10851 10854 10855 10855 10856 10856 10858 10858 10858 10858 10859 10861 10861 10862 10862 10862 10862 10862 10862 10862 10862 10863 10862 10862 10861 10861 10860 10860 10859 10858 10858 10857 10856 10854 10854 10853 10852 10851 10849 10848 10846 10844 10842 10840 10839 10837 10835 10834 10832 10830 10829 10827 10825 10824 10822 10821 10820 10818 10817
10789 10792 10796 10798 10800 10801 10804 10805 10807 10809 10811 10813 10816 10819 10822 10824 10826 10828 10831 10832 10835 10837 10839 10841 10844 10846 10849 10852 10853 10854 10854 10854 10855 10856 10856 10857 10858 10858 10859 10860 10860 10860 10860 10860 10860 10860 10861 10861 10861 10860 10859 10859 10859 10858 10858 10857 10856 10855 10854 10853 10852 10851 10850 10849 10848 10847 10845 10844 10841 10839 10838 10836 10834 10832 10830 10829 10827 10825 10824 10822 10820 10819 10818 10816 10815
10785 10788 10790 10793 10795 10797 10799 10801 10803 10805 10807 10810 10813 10816 10818 10821 10823 10825 10827 10829 10832 10834 10836 10839 10841 10844 10847 10850 10851 10852 10852 10853 10853 10853 10854 10855 10856 10856 10857 10858 10858 10857 10858 10858 10858 10859 10859 10859 10859 10858 10858 10857 10857 10856 10856 10855 10855 10854 10853 10852 10851 10850 10849 10848 10847 10846 10844 10842 10840 10838 10836 10834 10832 10830 10829 10827 10825 10823 10822 10820 10819 10817 10816 10814 10813
10783 10786 10785 10787 10790 10791 10794 10796 10799 10801 10803 10806 10809 10812 10815 10817 10820 10821 10824 10826 10829 10831 10833 10836 10839 10842 10845 10847 10849 10850 10850 10851 10851 10851 10852 10853 10854 10855 10855 10856 10856 10855 10856 10856 10857 10857 10857 10857 10857 10856 10856 10856 10855 10855 10854 10854 10853 10853 10852 10851 10850 10849 10848 10847 10846 10844 10843 10841 10839 10837 10835 10833 10831 10829 10827 10825 10823 10821 10820 10818 10817 10815 10814 10812 10811
10779 10781 10781 10781 10783 10786 10789 10792 10795 10797 10800 10803 10806 10809 10811 10815 10817 10819 10821 10823 10826 10828 10831 10833 10837 10840 10843 10845 10847 10848 10848 10848 10849 10848 10849 10851 10852 10853 10854 10854 10854 10854 10854 10855 10855 10855 10855 10855 10855 10855 10854 10854 10854 10853 10853 10852 10852 10851 10851 10850 10849 10848 10847 10845 10844 10843 10841 10840 10838 10836 10834 10831 10829 10827 10825 10823 10821 10819 10818 10816 10814 10813 10811 10810 10808
10773 10775 10778 10778 10778 10782 10786 10788 10791 10794 10797 10800 10803 10806 10809 10812 10814 10816 10818 10821 10823 10825 10828 10831 10834 10838 10840 10842 10844 10845 10845 10846 10846 10846 10847 10849 10851 10852 10852 10853 10853 10853 10853 10853 10853 10853 10854 10854 10853 10853 10853 10852 10852 10851 10851 10851 10850 10850 10849 10848 10847 10846 10845 10844 10843 10841 10840 10838 10836 10834 10832 10830 10828 10826 10824 10821 10820 10817 10816 10814 10812 10810 10809 10807 10806
10771 10772 10777 10777 10776 10779 10782 10785 10788 10791 10795 10797 10800 10803 10806 10808 10811 10813 10815 10818 10821 10823 10826 10829 10832 10835 10838 10840 10841 10842 10843 10843 10844 10845 10846 10848 10849 10850 10850 10851 10851 10851 10852 10852 10852 10852 10852 10852 10852 10852 10851 10851 10850 10850 10850 10849 10849 10848 10847 10847 10846 10845 10844 10843 10841 10840 10838 10837 10835 10833 10831 10829 10826 10824 10822 10820 10818 10816 10814 10812 10810 10808 10807 10805 10803
10769 10770 10774 10774 10772 10774 10776 10780 10784 10788 10791 10794 10797 10800 10803 10805 10808 10810 10813 10816 10818 10821 10823 10826 10830 10833 10835 10837 10838 10839 10840 10841 10842 10843 10845 10846 10847 10847 10849 10849 10850 10850 10850 10850 10850 10850 10850 10850 10850 10850 10850 10849 10849 10849 10848 10848 10847 10847 10846 10845 10844 10844 10843 10841 10840 10838 10837 10835 10833 10831 10829 10827 10825 10823 10820 10818 10816 10814 10811 10809 10808 10806 10804 10803 10801
10765 10767 10768 10768 10768 10769 10771 10775 10779 10785 10788 10791 10794 10797 10800 10803 10805 10807 10810 10813 10815 10819 10821 10824 10827 10831 10833 10834 10835 10836 10838 10839 10841 10842 10843 10844 10844 10845 10846 10847 10848 10848 10849 10849 10848 10848 10848 10849 10849 10849 10849 10848 10847 10847 10847 10846 10846 10846 10845 10844 10843 10842 10841 10840 10839 10837 10835 10834 10832 10830 10828 10825 10823 10821 10818 10816 10813 10811 10809 10807 10805 10804 10802 10800 10799
10761 10761 10761 10763 10766 10768 10770 10773 10777 10782 10786 10789 10792 10794 10798 10800 10803 10805 10808 10811 10813 10816 10819 10822 10825 10828 10830 10831 10832 10833 10835 10837 10839 10841 10841 10841 10842 10843 10844 10845 10846 10846 10847 10847 10847 10846 10847 10847 10848 10848 10847 10846 10846 10846 10845 10845 10845 10844 10844 10843 10842 10841 10840 10839 10837 10836 10834 10832 10830 10828 10826 10824 10822 10819 10817 10814 10811 10809 10807 10805 10803 10801 10800 10798 10796
10757 10757 10758 10760 10764 10767 10770 10774 10777 10781 10784 10787 10790 10792 10795 10798 10800 10802 10805 10808 10811 10814 10817 10820 10822 10825 10827 10828 10829 10831 10833 10836 10837 10838 10839 10840 10840 10841 10842 10842 10843 10844 10845 10845 10845 10845 10845 10846 10846 10846 10845 10845 10845 10844 10844 10844 10844 10843 10843 10842 10841 10839 10839 10838 10836 10835 10833 10831 10829 10827 10825 10822 10820 10817 10815 10812 10810 10807 10805 10803 10801 10799 10798 10796 10794
10756 10757 10755 10757 10761 10766 10770 10774 10777 10779 10782 10785 10787 10790 10792 10795 10798 10800 10803 10805 10808 10811 10814 10817 10819 10822 10824 10825 10826 10828 10831 10834 10835 10836 10837 10837 10838 10839 10839 10840 10841 10842 10843 10843 10843 10844 10844 10845 10845 10844 10844 10844 10844 10843 10842 10842 10842 10842 10842 10841 10840 10838 10837 10837 10835 10833 10831 10829 10827 10825 10823 10821 10818 10815 10813 10810 10808 10805 10803 10801 10799 10797 10795 10794 10792
10755 10753 10751 10754 10759 10765 10770 10774 10775 10776 10779 10783 10785 10787 10789 10792 10794 10797 10800 10802 10805 10808 10811 10814 10816 10819 10821 10823 10824 10826 10829 10831 10833 10833 10834 10835 10836 10836 10837 10838 10838 10839 10840 10841 10841 10842 10843 10843 10843 10843 10842 10842 10842 10842 10841 10841 10841 10841 10840 10840 10839 10837 10836 10835 10834 10832 10830 10828 10826 10824 10822 10819 10816 10813 10811 10808 10806 10803 10801 10799 10797 10795 10793 10792 10790
10751 10750 10751 10755 10760 10765 10770 10773 10775 10776 10778 10781 10782 10784 10786 10788 10791 10794 10797 10799 10802 10805 10807 10810 10812 10815 10818 10820 10821 10823 10826 10828 10830 10830 10831 10832 10833 10834 10835 10836 10836 10836 10837 10838 10839 10840 10841 10841 10842 10841 10841 10840 10840 10840 10840 10840 10840 10839 10838 10838 10837 10836 10835 10834 10832 10831 10828 10826 10824 10822 10820 10818 10815 10812 10809 10806 10804 10801 10799 10797 10795 10793 10791 10790 10787
10746 10749 10752 10757 10762 10765 10769 10774 10775 10775 10776 10778 10780 10781 10782 10784 10787 10790 10793 10796 10799 10801 10804 10807 10809 10812 10814 10816 10818 10821 10823 10825 10827 10827 10829 10830 10831 10832 10833 10833 10834 10834 10834 10835 10837 10838 10839 10840 10840 10840 10839 10839 10838 10838 10838 10838 10838 10837 10837 10837 10836 10835 10833 10832 10831 10829 10827 10825 10822 10820 10819 10816 10813 10810 10807 10804 10802 10799 10797 10795 10793 10791 10789 10787 10785
10744 10749 10754 10760 10764 10762 10768 10777 10776 10774 10774 10775 10777 10778 10779 10781 10783 10786 10789 10792 10795 10798 10801 10803 10805 10807 10810 10812 10815 10818 10820 10822 10824 10825 10826 10827 10828 10830 10831 10831 10832 10832 10832 10834 10835 10836 10837 10838 10838 10838 10838 10837 10837 10837 10836 10837 10836 10836 10836 10835 10835 10833 10831 10830 10828 10827 10826 10824 10821 10819 10817 10814 10811 10808 10805 10802 10800 10798 10795 10793 10791 10789 10787 10786 10784
10743 10749 10754 10758 10758 10758 10769 10780 10779 10773 10771 10771 10773 10774 10775 10777 10779 10781 10785 10788 10791 10794 10797 10800 10801 10803 10806 10809 10811 10814 10817 10819 10821 10822 10823 10824 10826 10827 10828 10829 10830 10830 10830 10832 10834 10835 10835 10836 10836 10835 10836 10836 10835 10835 10835 10834 10834 10834 10834 10833 10832 10830 10829 10827 10826 10826 10824 10822 10820 10818 10815 10812 10809 10806 10803 10801 10798 10796 10794 10791 10790 10788 10786 10784 10782
10742 10746 10747 10746 10744 10748 10763 10776 10777 10774 10771 10768 10768 10771 10772 10773 10776 10778 10781 10784 10787 10790 10793 10796 10798 10800 10802 10805 10807 10810 10813 10815 10817 10819 10821 10822 10823 10825 10826 10827 10828 10828 10829 10830 10832 10832 10833 10833 10833 10833 10833 10833 10834 10834 10834 10833 10832 10832 10831 10831 10830 10828 10827 10825 10825 10824 10823 10821 10819 10816 10813 10811 10808 10805 10802 10799 10797 10795 10792 10790 10788 10786 10784 10782 10780
10740 10740 10740 10739 10737 10738 10746 10756 10762 10766 10771 10770 10767 10767 10768 10770 10772 10774 10777 10780 10783 10786 10789 10792 10794 10797 10800 10802 10804 10807 10810 10812 10814 10816 10818 10820 10821 10823 10824 10825 10826 10827 10828 10829 10829 10830 10830 10830 10830 10831 10831 10831 10832 10832 10832 10831 10830 10830 10829 10829 10828 10827 10825 10824 10823 10822 10821 10820 10818 10815 10812 10810 10807 10803 10800 10797 10795 10793 10791 10788 10786 10784 10782 10780 10778
10735 10738 10741 10741 10741 10741 10741 10744 10749 10753 10760 10767 10769 10765 10764 10767 10768 10770 10773 10776 10779 10782 10785 10788 10791 10794 10797 10799 10801 10804 10806 10809 10811 10813 10815 10817 10819 10821 10822 10823 10824 10825 10826 10826 10827 10829 10829 10828 10828 10828 10829 10829 10830 10830 10830 10830 10829 10828 10828 10827 10826 10825 10824 10823 10822 10821 10819 10818 10816 10814 10811 10808 10805 10802 10799 10796 10794 10791 10788 10786 10784 10782 10780 10778 10776
10727 10733 10741 10744 10744 10744 10745 10745 10748 10749 10748 10755 10765 10766 10763 10763 10766 10768 10769 10772 10775 10778 10781 10784 10788 10791 10793 10796 10799 10801 10803 10806 10808 10810 10812 10814 10816 10818 10819 10821 10821 10822 10823 10824 10826 10827 10827 10826 10826 10826 10827 10828 10828 10828 10828 10828 10827 10827 10826 10825 10825 10824 10823 10822 10821 10819 10817 10816 10814 10812 10810 10807 10803 10801 10798 10796 10793 10790 10787 10785 10782 10781 10779 10776 10774
10717 10719 10729 10741 10744 10744 10744 10741 10741 10745 10745 10745 10751 10760 10764 10762 10763 10766 10768 10769 10772 10774 10777 10780 10784 10787 10790 10793 10796 10798 10800 10802 10804 10806 10809 10811 10813 10815 10816 10818 10819 10820 10821 10822 10824 10825 10825 10824 10824 10824 10825 10826 10826 10826 10826 10826 10825 10825 10824 10824 10823 10823 10822 10821 10820 10818 10815 10813 10812 10810 10808 10805 10802 10799 10796 10794 10792 10789 10787 10784 10781 10779 10777 10775 10772
10708 10711 10719 10730 10737 10739 10737 10733 10731 10736 10742 10742 10740 10746 10758 10763 10763 10764 10765 10766 10769 10771 10773 10776 10779 10782 10785 10789 10791 10794 10796 10799 10801 10803 10806 10808 10810 10812 10813 10815 10816 10817 10819 10820 10821 10822 10823 10822 10823 10823 10823 10824 10825 10825 10824 10824 10823 10823 10823 10822 10821 10821 10820 10820 10818 10816 10813 10811 10809 10807 10806 10803 10800 10797 10794 10792 10790 10788 10785 10783 10780 10777 10775 10773 10771
10701 10705 10707 10711 10719 10721 10719 10720 10724 10728 10735 10741 10742 10741 10746 10755 10761 10762 10762 10763 10765 10768 10770 10773 10775 10777 10780 10784 10787 10789 10792 10795 10797 10800 10802 10805 10807 10809 10810 10811 10813 10815 10817 10818 10819 10820 10820 10821 10821 10822 10822 10822 10823 10823 10822 10822 10821 10821 10820 10820 10819 10819 10819 10818 10817 10814 10811 10809 10807 10805 10804 10801 10798 10795 10793 10791 10788 10786 10783 10781 10778 10775 10773 10771 10769
10693 10694 10694 10694 10698 10702 10704 10709 10716 10722 10728 10734 10741 10740 10736 10739 10749 10757 10761 10762 10761 10763 10766 10769 10772 10773 10776 10779 10782 10785 10788 10791 10793 10796 10799 10802 10804 10806 10807 10808 10810 10812 10814 10816 10817 10818 10818 10819 10819 10820 10821 10821 10821 10821 10821 10820 10819 10819 10818 10817 10817 10817 10817 10817 10815 10812 10810 10808 10805 10803 10801 10799 10797 10794 10792 10789 10787 10785 10782 10779 10776 10773 10771 10769 10766
10684 10683 10686 10686 10688 10695 10702 10706 10711 10719 10725 10728 10735 10738 10735 10733 10737 10746 10755 10762 10762 10761 10763 10766 10769 10770 10773 10775 10778 10781 10783 10786 10789 10792 10796 10798 10801 10802 10803 10805 10807 10809 10811 10813 10815 10815 10816 10817 10817 10818 10819 10818 10819 10819 10819 10818 10817 10817 10816 10815 10815 10815 10815 10814 10813 10811 10808 10806 10804 10801 10799 10797 10795 10793 10791 10788 10785 10783 10781 10779 10775 10772 10769 10767 10764
10675 10675 10681 10684 10687 10695 10700 10702 10708 10715 10720 10724 10730 10734 10736 10735 10734 10736 10746 10758 10763 10761 10761 10764 10765 10767 10770 10772 10775 10778 10781 10782 10785 10788 10791 10794 10797 10798 10800 10803 10805 10807 10809 10810 10812 10813 10814 10815 10815 10816 10817 10817 10817 10816 10817 10816 10815 10814 10813 10813 10812 10812 10812 10811 10810 10808 10806 10804 10802 10800 10797 10795 10792 10790 10789 10787 10784 10782 10780 10778 10775 10771 10768 10765 10762
10667 10669 10676 10680 10684 10690 10693 10696 10702 10710 10714 10719 10725 10728 10732 10735 10734 10733 10738 10750 10759 10761 10762 10763 10763 10764 10767 10769 10772 10775 10778 10780 10782 10785 10788 10791 10793 10795 10799 10801 10802 10805 10807 10808 10809 10811 10812 10813 10814 10814 10815 10815 10815 10814 10814 10813 10813 10812 10811 10810 10810 10810 10809 10808 10807 10806 10804 10802 10800 10797 10795 10793 10791 10788 10785 10784 10783 10780 10778 10776 10774 10770 10766 10764 10761
10659 10663 10668 10672 10677 10682 10686 10690 10695 10702 10707 10712 10718 10723 10727 10731 10733 10732 10733 10739 10748 10755 10759 10761 10762 10762 10763 10765 10768 10771 10774 10776 10778 10781 10784 10787 10790 10792 10796 10799 10800 10802 10804 10805 10806 10808 10809 10810 10811 10812 10812 10813 10812 10812 10811 10811 10810 10809 10808 10808 10807 10807 10806 10805 10804 10803 10801 10799 10797 10795 10793 10792 10790 10787 10784 10781 10780 10779 10776 10774 10772 10769 10765 10762 10759
10650 10655 10660 10663 10669 10674 10679 10684 10688 10694 10699 10705 10712 10717 10721 10725 10729 10730 10729 10731 10736 10743 10749 10752 10756 10760 10762 10762 10764 10766 10769 10772 10774 10777 10781 10784 10787 10789 10792 10796 10797 10799 10801 10802 10804 10805 10806 10807 10808 10809 10809 10809 10809 10809 10808 10808 10807 10806 10806 10805 10804 10803 10803 10802 10801 10800 10798 10797 10795 10793 10792 10790 10788 10785 10783 10780 10778 10776 10774 10772 10769 10767 10764 10761 10758
10642 10648 10652 10656 10661 10665 10672 10677 10681 10686 10692 10698 10705 10710 10715 10719 10723 10725 10726 10728 10731 10736 10741 10743 10747 10753 10757 10759 10761 10762 10765 10767 10770 10774 10777 10780 10783 10787 10789 10792 10795 10796 10797 10800 10801 10802 10803 10804 10805 10805 10806 10806 10806 10806 10805 10805 10804 10803 10803 10802 10801 10800 10799 10799 10798 10797 10796 10794 10793 10792 10790 10788 10786 10783 10781 10779 10777 10774 10772 10769 10766 10763 10761 10759 10756
10634 10640 10644 10649 10653 10656 10663 10669 10674 10680 10685 10692 10698 10704 10709 10714 10717 10720 10723 10725 10728 10732 10736 10739 10743 10746 10748 10753 10757 10758 10759 10762 10765 10769 10773 10776 10780 10783 10785 10788 10791 10793 10795 10797 10798 10799 10800 10801 10802 10802 10802 10802 10802 10802 10802 10801 10801 10800 10799 10798 10797 10797 10796 10796 10795 10794 10793 10792 10791 10789 10787 10786 10783 10781 10780 10778 10775 10773 10770 10768 10764 10761 10758 10757 10755
10623 10630 10635 10640 10644 10648 10654 10662 10668 10674 10679 10686 10693 10698 10703 10708 10711 10715 10719 10722 10724 10728 10732 10736 10739 10741 10743 10747 10752 10755 10757 10757 10760 10763 10767 10771 10774 10778 10781 10783 10787 10790 10791 10793 10795 10796 10797 10798 10798 10799 10799 10799 10799 10799 10799 10798 10798 10796 10795 10794 10794 10793 10793 10792 10792 10791 10790 10790 10788 10787 10785 10783 10781 10780 10778 10776 10774 10771 10769 10766 10763 10760 10757 10755 10754
10614 10619 10624 10629 10636 10641 10647 10654 10661 10667 10673 10680 10688 10693 10697 10701 10705 10710 10715 10718 10720 10724 10727 10731 10734 10737 10740 10743 10746 10751 10754 10753 10754 10758 10762 10766 10770 10773 10777 10780 10782 10786 10788 10789 10791 10793 10794 10795 10795 10795 10796 10795 10795 10795 10795 10795 10794 10793 10792 10791 10790 10790 10790 10789 10789 10788 10788 10787 10786 10784 10782 10781 10779 10778 10776 10774 10772 10769 10767 10764 10762 10759 10756 10753 10751
10607 10610 10614 10620 10626 10632 10639 10647 10654 10659 10665 10672 10680 10686 10690 10695 10700 10704 10709 10713 10716 10719 10722 10726 10730 10732 10735 10739 10741 10744 10747 10748 10749 10753 10757 10761 10765 10769 10773 10776 10778 10781 10784 10785 10787 10789 10791 10792 10792 10792 10792 10792 10792 10792 10792 10792 10791 10790 10789 10788 10787 10787 10787 10786 10786 10786 10785 10785 10783 10782 10780 10778 10777 10776 10774 10772 10770 10767 10765 10762 10759 10757 10755 10752 10749
10600 10602 10606 10611 10616 10624 10631 10639 10646 10651 10657 10665 10674 10679 10683 10689 10695 10699 10703 10707 10711 10714 10717 10722 10726 10728 10731 10734 10736 10739 10742 10744 10744 10748 10752 10756 10761 10765 10768 10772 10775 10777 10780 10782 10784 10786 10788 10789 10789 10789 10789 10789 10789 10789 10789 10789 10788 10787 10786 10786 10784 10784 10784 10784 10783 10783 10783 10782 10781 10780 10778 10777 10775 10774 10772 10770 10768 10765 10763 10760 10758 10755 10753 10751 10748
10591 10593 10598 10603 10608 10614 10621 10630 10637 10643 10651 10661 10669 10674 10676 10681 10687 10694 10699 10702 10704 10708 10713 10717 10721 10724 10728 10730 10733 10736 10738 10740 10741 10744 10748 10752 10756 10760 10763 10767 10770 10772 10775 10778 10781 10783 10785 10786 10787 10787 10787 10786 10786 10786 10786 10786 10785 10784 10783 10783 10781 10781 10781 10781 10781 10781 10781 10780 10779 10778 10776 10775 10773 10772 10770 10768 10766 10763 10761 10758 10756 10754 10752 10749 10747
10581 10585 10590 10596 10601 10606 10613 10621 10628 10636 10646 10654 10660 10665 10668 10673 10678 10684 10692 10695 10698 10703 10708 10712 10716 10720 10725 10728 10730 10732 10734 10737 10739 10741 10744 10747 10751 10755 10759 10763 10766 10768 10771 10775 10778 10780 10782 10783 10784 10784 10784 10783 10783 10783 10782 10782 10782 10781 10781 10780 10779 10778 10778 10778 10778 10778 10778 10777 10776 10775 10774 10773 10772 10770 10768 10766 10764 10761 10759 10757 10755 10753 10750 10748 10745
10572 10576 10582 10589 10594 10600 10606 10614 10620 10629 10637 10641 10645 10650 10656 10663 10668 10674 10681 10684 10689 10696 10702 10707 10711 10715 10720 10723 10726 10728 10729 10732 10736 10738 10740 10743 10747 10750 10754 10758 10761 10764 10768 10772 10775 10777 10779 10780 10781 10781 10780 10780 10779 10779 10779 10779 10779 10779 10778 10777 10776 10776 10776 10776 10776 10775 10775 10774 10773 10773 10772 10771 10770 10768 10766 10764 10762 10759 10756 10755 10753 10751 10748 10746 10744